Weather History for Slidell, LA

Change the Weather History Date:

Sunday, November 6, 2011

  Actual Average (KNEW) Record (KNEW)
Temperature  
Mean Temperature 64 °F 65 °F  
Max Temperature 73 °F 75 °F 85 °F (2003)
Min Temperature 55 °F 56 °F 32 °F (1991)
Degree Days  
Heating Degree Days 1 3  
Month to date heating degree days 15  
Since 1 July heating degree days 40  
Cooling Degree Days 0 3  
Month to date cooling degree days 21  
Year to date cooling degree days 2930  
Growing Degree Days 14 (Base 50)    
Moisture  
Dew Point 55 °F    
Average Humidity 76    
Maximum Humidity 90    
Minimum Humidity 61    
Precipitation  
Precipitation 0.00 in 0.14 in 1.84 in (1955)
Month to date precipitation 0.83  
Year to date precipitation 53.55  
Snow  
Snow 0.00 in - - ()
Month to date snowfall  
Since 1 July snowfall  
Since 1 September snowfall  
Snow Depth -    
Sea Level Pressure  
Sea Level Pressure 30.18 in    
Wind  
Wind Speed 5 mph (East)    
Max Wind Speed 14 mph    
Max Gust Speed 23 mph    
Visibility 10 miles    
Events Rain    
T = Trace of Precipitation, MM = Missing Value Source: NWS Daily Summary

Daily Weather History Graph

Daily Weather History Graph

Search for Another Location

Airport:

Trip Planner

Search our weather history database for the weather conditions in past years. The results will help you decide how hot, cold, wet, or windy it might be!

Date:

Astronomy

Nov. 06, 2011 Rise Set
Actual Time 6:17 AM CST 5:08 PM CST
Civil Twilight 5:52 AM CST 5:33 PM CST
Nautical Twilight 5:23 AM CST 6:01 PM CST
Astronomical Twilight 4:55 AM CST 6:29 PM CST
Moon 2:40 PM CST (11/6) 2:37 AM CST (11/6)
Length of Visible Light 11h 40m
Length of Day
10h 50m
Waxing Gibbous, 86% of the Moon is Illuminated
Nov 6
Waxing Gibbous
Nov 10
Full
Nov 18
Last Quarter
Nov 25
New
Dec 2
First Quarter

Hourly Weather History & Observations

Time (CST) Temp. Dew Point Humidity Pressure Visibility Wind Dir Wind Speed Gust Speed Precip Events Conditions
12:53 AM 55.0 °F 51.1 °F 86% 30.12 in 10.0 mi Calm Calm - N/A   Clear
1:53 AM 55.0 °F 52.0 °F 89% 30.11 in 10.0 mi ENE 4.6 mph - N/A   Clear
1:53 AM 55.9 °F 51.1 °F 84% 30.11 in 10.0 mi ENE 4.6 mph - N/A   Clear
2:53 AM 55.0 °F 48.9 °F 80% 30.12 in 10.0 mi ENE 5.8 mph - N/A   Clear
3:53 AM 55.0 °F 48.0 °F 77% 30.14 in 10.0 mi ENE 3.5 mph - N/A   Mostly Cloudy
4:53 AM 55.0 °F 48.0 °F 77% 30.15 in 10.0 mi NE 3.5 mph - N/A   Overcast
5:53 AM 55.0 °F 48.0 °F 77% 30.17 in 10.0 mi NE 4.6 mph - N/A   Overcast
6:53 AM 55.9 °F 48.9 °F 77% 30.19 in 10.0 mi NE 5.8 mph - 0.00 in Rain Light Rain
7:53 AM 59.0 °F 50.0 °F 72% 30.22 in 10.0 mi ENE 3.5 mph - 0.00 in   Overcast
8:53 AM 63.0 °F 52.0 °F 67% 30.22 in 10.0 mi East 6.9 mph - N/A   Mostly Cloudy
9:53 AM 66.0 °F 55.0 °F 68% 30.23 in 10.0 mi ENE 9.2 mph - N/A   Overcast
10:53 AM 71.1 °F 57.0 °F 61% 30.22 in 10.0 mi East 9.2 mph - N/A   Mostly Cloudy
11:53 AM 72.0 °F 59.0 °F 64% 30.20 in 10.0 mi ESE 11.5 mph - N/A   Mostly Cloudy
12:53 PM 73.0 °F 59.0 °F 61% 30.17 in 10.0 mi East 11.5 mph 20.7 mph N/A   Overcast
1:53 PM 73.0 °F 59.0 °F 61% 30.16 in 10.0 mi ESE 13.8 mph 23.0 mph N/A   Mostly Cloudy
3:53 PM 69.1 °F 57.9 °F 68% 30.17 in 10.0 mi ESE 8.1 mph - N/A   Overcast
4:53 PM 66.9 °F 57.9 °F 73% 30.18 in 10.0 mi ESE 9.2 mph - N/A   Overcast
5:53 PM 66.0 °F 57.9 °F 75% 30.19 in 10.0 mi ESE 4.6 mph - N/A   Overcast
6:53 PM 66.9 °F 59.0 °F 76% 30.20 in 10.0 mi ESE 6.9 mph - N/A   Overcast
7:53 PM 66.0 °F 60.1 °F 81% 30.21 in 10.0 mi East 3.5 mph - N/A   Mostly Cloudy
8:53 PM 64.0 °F 61.0 °F 90% 30.22 in 10.0 mi Calm Calm - N/A   Overcast
9:53 PM 64.9 °F 61.0 °F 87% 30.22 in 10.0 mi Calm Calm - N/A   Overcast
10:53 PM 64.0 °F 61.0 °F 90% 30.22 in 10.0 mi Calm Calm - N/A   Mostly Cloudy